Time,TemperatureF,DewpointF,PressureIn,WindDirection,WindDirectionDegrees,WindSpeedMPH,WindSpeedGustMPH,Humidity,HourlyPrecipIn,Conditions,Clouds,dailyrainin,SoftwareType,DateUTC
2013-03-03 00:00:00,22.0,18.7,30.02,WNW,303,4.0,13.0,87,0.00,,---,0.00,VWS V13.01,2013-03-03 05:00:00,
2013-03-03 00:01:00,22.0,18.7,30.02,NW,307,8.0,10.0,87,0.00,,---,0.00,VWS V13.01,2013-03-03 05:01:00,
2013-03-03 00:06:00,22.0,18.7,30.01,NW,306,9.0,15.0,87,0.00,,---,0.00,VWS V13.01,2013-03-03 05:06:00,
2013-03-03 00:11:00,21.9,18.9,30.01,NW,311,6.0,15.0,88,0.00,,---,0.00,VWS V13.01,2013-03-03 05:11:00,
2013-03-03 00:16:00,21.8,18.5,30.02,NW,326,7.0,15.0,87,0.00,,---,0.00,VWS V13.01,2013-03-03 05:16:00,
2013-03-03 00:21:00,21.8,18.5,30.02,WNW,295,13.0,15.0,87,0.00,,---,0.00,VWS V13.01,2013-03-03 05:21:00,
2013-03-03 00:26:00,21.7,18.4,30.02,NW,323,0.0,15.0,87,0.00,,---,0.00,VWS V13.01,2013-03-03 05:26:00,
2013-03-03 00:32:00,21.7,18.4,30.01,NNW,348,8.0,9.0,87,0.00,,---,0.00,VWS V13.01,2013-03-03 05:32:00,
2013-03-03 00:37:00,21.7,18.4,30.01,North,355,0.0,9.0,87,0.00,,---,0.00,VWS V13.01,2013-03-03 05:37:00,
2013-03-03 00:42:00,21.6,18.3,30.01,NNW,342,4.0,9.0,87,0.00,,---,0.00,VWS V13.01,2013-03-03 05:42:00,
2013-03-03 00:47:00,21.6,18.6,30.01,NNW,333,4.0,9.0,88,0.00,,---,0.00,VWS V13.01,2013-03-03 05:47:00,
2013-03-03 00:52:00,21.5,18.5,30.01,NW,323,4.0,9.0,88,0.00,,---,0.00,VWS V13.01,2013-03-03 05:52:00,
2013-03-03 00:57:00,21.5,18.5,30.01,NNW,328,0.0,9.0,88,0.00,,---,0.00,VWS V13.01,2013-03-03 05:57:00,
2013-03-03 01:02:00,21.4,18.4,30.02,NNW,327,0.0,3.0,88,0.00,,---,0.00,VWS V13.01,2013-03-03 06:02:00,
2013-03-03 01:07:00,21.3,18.3,30.02,NW,312,4.0,12.0,88,0.00,,---,0.00,VWS V13.01,2013-03-03 06:07:00,
2013-03-03 01:12:00,21.2,18.2,30.02,NNW,335,9.0,12.0,88,0.00,,---,0.00,VWS V13.01,2013-03-03 06:12:00,
2013-03-03 01:17:00,21.1,18.1,30.02,WNW,299,8.0,12.0,88,0.00,,---,0.00,VWS V13.01,2013-03-03 06:17:00,
2013-03-03 01:22:00,21.0,18.3,30.02,NNW,346,6.0,12.0,89,0.00,,---,0.00,VWS V13.01,2013-03-03 06:22:00,
2013-03-03 01:27:00,20.9,18.2,30.02,NW,307,6.0,12.0,89,0.00,,---,0.00,VWS V13.01,2013-03-03 06:27:00,
2013-03-03 01:32:00,20.8,18.1,30.02,NW,308,5.0,5.0,89,0.00,,---,0.00,VWS V13.01,2013-03-03 06:32:00,
2013-03-03 01:37:00,20.8,18.1,30.02,WNW,296,6.0,8.0,89,0.00,,---,0.00,VWS V13.01,2013-03-03 06:37:00,
2013-03-03 01:42:00,20.7,18.0,30.02,WNW,295,7.0,8.0,89,0.00,,---,0.00,VWS V13.01,2013-03-03 06:42:00,
2013-03-03 01:48:00,20.7,18.0,30.02,WNW,295,5.0,8.0,89,0.00,,---,0.00,VWS V13.01,2013-03-03 06:48:00,
2013-03-03 01:53:00,20.6,17.9,30.02,NW,309,4.0,10.0,89,0.00,,---,0.00,VWS V13.01,2013-03-03 06:53:00,
2013-03-03 01:58:00,20.6,17.9,30.02,NW,309,0.0,10.0,89,0.00,,---,0.00,VWS V13.01,2013-03-03 06:58:00,
2013-03-03 02:03:00,20.6,17.9,30.01,NNW,339,7.0,13.0,89,0.00,,---,0.00,VWS V13.01,2013-03-03 07:03:00,
2013-03-03 02:08:00,20.7,18.0,30.01,NW,326,0.0,13.0,89,0.00,,---,0.00,VWS V13.01,2013-03-03 07:08:00,
2013-03-03 02:13:00,20.6,17.9,30.02,NW,309,6.0,13.0,89,0.00,,---,0.00,VWS V13.01,2013-03-03 07:13:00,
2013-03-03 02:18:00,20.7,18.0,30.01,NW,309,6.0,13.0,89,0.00,,---,0.00,VWS V13.01,2013-03-03 07:18:00,
2013-03-03 02:23:00,20.6,18.1,30.01,NW,316,8.0,13.0,90,0.00,,---,0.00,VWS V13.01,2013-03-03 07:23:00,
2013-03-03 02:28:00,20.5,18.0,30.01,NW,313,6.0,13.0,90,0.00,,---,0.00,VWS V13.01,2013-03-03 07:28:00,
2013-03-03 02:33:00,20.4,17.9,30.01,WNW,298,8.0,12.0,90,0.00,,---,0.00,VWS V13.01,2013-03-03 07:33:00,
2013-03-03 02:38:00,20.4,17.7,30.01,NNW,328,9.0,13.0,89,0.00,,---,0.00,VWS V13.01,2013-03-03 07:38:00,
2013-03-03 02:43:00,20.4,17.7,30.01,NW,314,6.0,13.0,89,0.00,,---,0.00,VWS V13.01,2013-03-03 07:43:00,
2013-03-03 02:48:00,20.4,17.7,30.01,NNW,336,8.0,13.0,89,0.00,,---,0.00,VWS V13.01,2013-03-03 07:48:00,
2013-03-03 02:53:00,20.4,17.7,30.00,NW,304,6.0,13.0,89,0.00,,---,0.00,VWS V13.01,2013-03-03 07:53:00,
2013-03-03 02:58:00,20.3,17.6,30.00,WNW,303,6.0,13.0,89,0.00,,---,0.00,VWS V13.01,2013-03-03 07:58:00,
2013-03-03 03:04:00,20.2,17.2,30.00,NW,313,8.0,12.0,88,0.00,,---,0.00,VWS V13.01,2013-03-03 08:04:00,
2013-03-03 03:09:00,20.0,17.0,30.00,NW,317,8.0,14.0,88,0.00,,---,0.00,VWS V13.01,2013-03-03 08:09:00,
2013-03-03 03:14:00,19.9,16.9,30.00,NW,325,7.0,14.0,88,0.00,,---,0.00,VWS V13.01,2013-03-03 08:14:00,
2013-03-03 03:19:00,19.8,16.8,30.00,WNW,288,8.0,14.0,88,0.00,,---,0.00,VWS V13.01,2013-03-03 08:19:00,
2013-03-03 03:24:00,19.8,16.8,30.00,NW,318,5.0,14.0,88,0.00,,---,0.00,VWS V13.01,2013-03-03 08:24:00,
2013-03-03 03:29:00,19.8,16.8,30.00,WNW,300,6.0,14.0,88,0.00,,---,0.00,VWS V13.01,2013-03-03 08:29:00,
2013-03-03 03:34:00,19.7,16.7,30.00,NW,313,6.0,12.0,88,0.00,,---,0.00,VWS V13.01,2013-03-03 08:34:00,
2013-03-03 03:39:00,19.7,16.7,30.00,NNW,329,11.0,12.0,88,0.00,,---,0.00,VWS V13.01,2013-03-03 08:39:00,
2013-03-03 03:44:00,19.7,16.7,30.00,NW,326,5.0,12.0,88,0.00,,---,0.00,VWS V13.01,2013-03-03 08:44:00,
2013-03-03 03:49:00,19.7,16.7,30.00,NW,326,5.0,12.0,88,0.00,,---,0.00,VWS V13.01,2013-03-03 08:49:00,
2013-03-03 03:54:00,19.7,16.7,30.00,NW,321,6.0,12.0,88,0.00,,---,0.00,VWS V13.01,2013-03-03 08:54:00,
2013-03-03 03:59:00,19.7,16.7,30.00,NW,320,8.0,12.0,88,0.00,,---,0.00,VWS V13.01,2013-03-03 08:59:00,
2013-03-03 04:04:00,19.7,16.5,30.00,NW,307,9.0,12.0,87,0.00,,---,0.00,VWS V13.01,2013-03-03 09:04:00,
2013-03-03 04:09:00,19.7,16.5,30.00,NNW,330,5.0,13.0,87,0.00,,---,0.00,VWS V13.01,2013-03-03 09:09:00,
2013-03-03 04:14:00,19.7,16.5,29.99,NW,315,7.0,13.0,87,0.00,,---,0.00,VWS V13.01,2013-03-03 09:14:00,
2013-03-03 04:20:00,19.7,16.5,30.00,NW,326,6.0,13.0,87,0.00,,---,0.00,VWS V13.01,2013-03-03 09:20:00,
2013-03-03 04:25:00,19.7,16.5,30.00,NW,322,8.0,13.0,87,0.00,,---,0.00,VWS V13.01,2013-03-03 09:25:00,
2013-03-03 04:30:00,19.7,16.5,30.00,WNW,298,8.0,13.0,87,0.00,,---,0.00,VWS V13.01,2013-03-03 09:30:00,
2013-03-03 04:35:00,19.7,16.5,30.00,WNW,300,11.0,11.0,87,0.00,,---,0.00,VWS V13.01,2013-03-03 09:35:00,
2013-03-03 04:40:00,19.7,16.5,30.00,WNW,286,10.0,14.0,87,0.00,,---,0.00,VWS V13.01,2013-03-03 09:40:00,
2013-03-03 04:45:00,19.7,16.2,30.00,NW,306,11.0,19.0,86,0.00,,---,0.00,VWS V13.01,2013-03-03 09:45:00,
2013-03-03 04:50:00,19.7,16.2,30.00,NW,321,8.0,19.0,86,0.00,,---,0.00,VWS V13.01,2013-03-03 09:50:00,
2013-03-03 04:55:00,19.7,15.9,30.00,NW,325,10.0,19.0,85,0.00,,---,0.00,VWS V13.01,2013-03-03 09:55:00,
2013-03-03 05:00:00,19.7,15.9,30.00,NW,319,8.0,10.0,85,0.00,,---,0.00,VWS V13.01,2013-03-03 10:00:00,
2013-03-03 05:05:00,19.7,15.9,30.00,WNW,302,11.0,11.0,85,0.00,,---,0.00,VWS V13.01,2013-03-03 10:05:00,
2013-03-03 05:10:00,19.6,15.8,30.01,NW,304,8.0,14.0,85,0.00,,---,0.00,VWS V13.01,2013-03-03 10:10:00,
2013-03-03 05:16:00,19.5,15.7,30.01,NW,314,8.0,16.0,85,0.00,,---,0.00,VWS V13.01,2013-03-03 10:16:00,
2013-03-03 05:21:00,19.4,15.6,30.00,NW,304,11.0,16.0,85,0.00,,---,0.00,VWS V13.01,2013-03-03 10:21:00,
2013-03-03 05:26:00,19.4,15.9,30.00,NW,306,4.0,16.0,86,0.00,,---,0.00,VWS V13.01,2013-03-03 10:26:00,
2013-03-03 05:31:00,19.4,15.9,30.01,NW,306,7.0,10.0,86,0.00,,---,0.00,VWS V13.01,2013-03-03 10:31:00,
2013-03-03 05:36:00,19.4,15.9,30.01,NW,311,9.0,10.0,86,0.00,,---,0.00,VWS V13.01,2013-03-03 10:36:00,
2013-03-03 05:41:00,19.4,15.9,30.00,NW,313,8.0,11.0,86,0.00,,---,0.00,VWS V13.01,2013-03-03 10:41:00,
2013-03-03 05:46:00,19.4,15.6,30.01,NW,304,5.0,11.0,85,0.00,,---,0.00,VWS V13.01,2013-03-03 10:46:00,
2013-03-03 05:51:00,19.4,15.6,30.01,NW,318,3.0,11.0,85,0.00,,---,0.00,VWS V13.01,2013-03-03 10:51:00,
2013-03-03 05:57:00,19.3,15.8,30.01,NW,321,3.0,11.0,86,0.00,,---,0.00,VWS V13.01,2013-03-03 10:57:00,
2013-03-03 06:02:00,19.3,15.5,30.00,WNW,300,2.0,9.0,85,0.00,,---,0.00,VWS V13.01,2013-03-03 11:02:00,
2013-03-03 06:07:00,19.3,15.5,30.01,NW,307,5.0,9.0,85,0.00,,---,0.00,VWS V13.01,2013-03-03 11:07:00,
2013-03-03 06:12:00,19.4,15.6,30.01,NW,310,4.0,10.0,85,0.00,,---,0.00,VWS V13.01,2013-03-03 11:12:00,
2013-03-03 06:17:00,19.3,15.5,30.01,NW,304,8.0,11.0,85,0.00,,---,0.00,VWS V13.01,2013-03-03 11:17:00,
2013-03-03 06:22:00,19.3,15.5,30.01,NW,316,6.0,13.0,85,0.00,,---,0.00,VWS V13.01,2013-03-03 11:22:00,
2013-03-03 06:27:00,19.3,15.5,30.01,WNW,301,8.0,13.0,85,0.00,,---,0.00,VWS V13.01,2013-03-03 11:27:00,
2013-03-03 06:32:00,19.2,15.4,30.01,NW,310,11.0,15.0,85,0.00,,---,0.00,VWS V13.01,2013-03-03 11:32:00,
2013-03-03 06:37:00,19.2,15.4,30.01,NNW,331,9.0,15.0,85,0.00,,---,0.00,VWS V13.01,2013-03-03 11:37:00,
2013-03-03 06:42:00,19.2,15.4,30.02,WNW,286,10.0,15.0,85,0.00,,---,0.00,VWS V13.01,2013-03-03 11:42:00,
2013-03-03 06:47:00,19.3,15.5,30.02,NW,311,6.0,15.0,85,0.00,,---,0.00,VWS V13.01,2013-03-03 11:47:00,
2013-03-03 06:52:00,19.3,15.5,30.01,WNW,291,10.0,15.0,85,0.00,,---,0.00,VWS V13.01,2013-03-03 11:52:00,
2013-03-03 06:58:00,19.3,15.5,30.02,NW,323,5.0,15.0,85,0.00,,---,0.00,VWS V13.01,2013-03-03 11:58:00,
2013-03-03 07:03:00,19.3,15.5,30.02,NNW,327,8.0,15.0,85,0.00,,---,0.00,VWS V13.01,2013-03-03 12:03:00,
2013-03-03 07:08:00,19.3,15.5,30.02,NW,314,10.0,15.0,85,0.00,,---,0.00,VWS V13.01,2013-03-03 12:08:00,
2013-03-03 07:13:00,19.4,15.6,30.02,NW,323,7.0,15.0,85,0.00,,---,0.00,VWS V13.01,2013-03-03 12:13:00,
2013-03-03 07:18:00,19.4,15.6,30.02,NW,318,6.0,15.0,85,0.00,,---,0.00,VWS V13.01,2013-03-03 12:18:00,
2013-03-03 07:23:00,19.4,15.6,30.03,NW,309,7.0,15.0,85,0.00,,---,0.00,VWS V13.01,2013-03-03 12:23:00,
2013-03-03 07:28:00,19.5,15.7,30.03,WNW,286,11.0,18.0,85,0.00,,---,0.00,VWS V13.01,2013-03-03 12:28:00,
2013-03-03 07:33:00,19.5,16.0,30.03,NW,314,9.0,12.0,86,0.00,,---,0.00,VWS V13.01,2013-03-03 12:33:00,
2013-03-03 07:38:00,19.5,16.0,30.03,NW,317,9.0,12.0,86,0.00,,---,0.00,VWS V13.01,2013-03-03 12:38:00,
2013-03-03 07:44:00,19.5,16.0,30.03,NW,317,7.0,12.0,86,0.00,,---,0.00,VWS V13.01,2013-03-03 12:44:00,
2013-03-03 07:49:00,19.5,16.0,30.03,NNW,327,9.0,12.0,86,0.00,,---,0.00,VWS V13.01,2013-03-03 12:49:00,
2013-03-03 07:54:00,19.5,16.0,30.03,WNW,292,9.0,12.0,86,0.00,,---,0.00,VWS V13.01,2013-03-03 12:54:00,
2013-03-03 07:59:00,19.5,16.3,30.04,NNW,328,2.0,12.0,87,0.00,,---,0.00,VWS V13.01,2013-03-03 12:59:00,
2013-03-03 08:04:00,19.6,16.4,30.03,NNW,328,4.0,6.0,87,0.00,,---,0.00,VWS V13.01,2013-03-03 13:04:00,
2013-03-03 08:09:00,19.6,16.4,30.04,NNW,328,2.0,8.0,87,0.00,,---,0.00,VWS V13.01,2013-03-03 13:09:00,
2013-03-03 08:14:00,19.7,16.5,30.03,NNW,328,3.0,8.0,87,0.00,,---,0.00,VWS V13.01,2013-03-03 13:14:00,
2013-03-03 08:19:00,19.7,16.7,30.04,NNW,327,5.0,8.0,88,0.00,,---,0.00,VWS V13.01,2013-03-03 13:19:00,
2013-03-03 08:24:00,19.7,16.7,30.03,NNW,327,2.0,8.0,88,0.00,,---,0.00,VWS V13.01,2013-03-03 13:24:00,
2013-03-03 08:29:00,19.7,16.7,30.03,NW,309,5.0,9.0,88,0.00,,---,0.00,VWS V13.01,2013-03-03 13:29:00,
2013-03-03 08:34:00,20.0,16.8,30.03,NW,306,9.0,9.0,87,0.00,,---,0.00,VWS V13.01,2013-03-03 13:34:00,
2013-03-03 08:39:00,20.2,17.0,30.03,WNW,298,8.0,13.0,87,0.00,,---,0.00,VWS V13.01,2013-03-03 13:39:00,
2013-03-03 08:45:00,20.3,16.8,30.03,NNW,336,12.0,14.0,86,0.00,,---,0.00,VWS V13.01,2013-03-03 13:45:00,
2013-03-03 08:50:00,20.5,17.0,30.03,NW,304,11.0,14.0,86,0.00,,---,0.00,VWS V13.01,2013-03-03 13:50:00,
2013-03-03 08:55:00,20.7,17.2,30.03,NW,310,8.0,14.0,86,0.00,,---,0.00,VWS V13.01,2013-03-03 13:55:00,
2013-03-03 09:00:00,20.8,17.0,30.03,NNW,334,8.0,10.0,85,0.00,,---,0.00,VWS V13.01,2013-03-03 14:00:00,
2013-03-03 09:05:00,20.9,17.1,30.03,WNW,302,10.0,16.0,85,0.00,,---,0.00,VWS V13.01,2013-03-03 14:05:00,
2013-03-03 09:10:00,20.9,17.1,30.03,WNW,298,8.0,16.0,85,0.00,,---,0.00,VWS V13.01,2013-03-03 14:10:00,
2013-03-03 09:15:00,21.1,17.3,30.02,NW,313,9.0,21.0,85,0.00,,---,0.00,VWS V13.01,2013-03-03 14:15:00,
2013-03-03 09:20:00,21.3,17.5,30.02,NW,318,15.0,21.0,85,0.00,,---,0.00,VWS V13.01,2013-03-03 14:20:00,
2013-03-03 09:25:00,21.4,17.3,30.02,WNW,287,14.0,21.0,84,0.00,,---,0.00,VWS V13.01,2013-03-03 14:25:00,
2013-03-03 09:30:00,21.6,17.5,30.02,NW,321,7.0,11.0,84,0.00,,---,0.00,VWS V13.01,2013-03-03 14:30:00,
2013-03-03 09:36:00,21.8,17.7,30.02,WNW,302,13.0,15.0,84,0.00,,---,0.00,VWS V13.01,2013-03-03 14:36:00,
2013-03-03 09:41:00,21.9,17.5,30.02,NW,322,11.0,16.0,83,0.00,,---,0.00,VWS V13.01,2013-03-03 14:41:00,
2013-03-03 09:46:00,22.0,17.6,30.02,WNW,302,14.0,16.0,83,0.00,,---,0.00,VWS V13.01,2013-03-03 14:46:00,
2013-03-03 09:51:00,22.1,18.0,30.02,NW,315,7.0,16.0,84,0.00,,---,0.00,VWS V13.01,2013-03-03 14:51:00,
2013-03-03 09:56:00,22.2,17.8,30.02,NW,315,7.0,18.0,83,0.00,,---,0.00,VWS V13.01,2013-03-03 14:56:00,
2013-03-03 10:01:00,22.5,18.1,30.02,NW,321,7.0,15.0,83,0.00,,---,0.00,VWS V13.01,2013-03-03 15:01:00,
2013-03-03 10:06:00,22.6,18.2,30.02,NW,309,7.0,15.0,83,0.00,,---,0.00,VWS V13.01,2013-03-03 15:06:00,
2013-03-03 10:11:00,22.7,18.3,30.01,WNW,300,8.0,15.0,83,0.00,,---,0.00,VWS V13.01,2013-03-03 15:11:00,
2013-03-03 10:16:00,22.8,18.4,30.01,NW,309,13.0,15.0,83,0.00,,---,0.00,VWS V13.01,2013-03-03 15:16:00,
2013-03-03 10:21:00,22.8,18.4,30.01,WNW,300,12.0,19.0,83,0.00,,---,0.00,VWS V13.01,2013-03-03 15:21:00,
2013-03-03 10:26:00,22.8,18.4,30.02,NW,313,9.0,19.0,83,0.00,,---,0.00,VWS V13.01,2013-03-03 15:26:00,
2013-03-03 10:31:00,23.0,18.6,30.02,NW,314,11.0,13.0,83,0.00,,---,0.00,VWS V13.01,2013-03-03 15:31:00,
2013-03-03 10:36:00,23.0,18.6,30.01,NNW,340,7.0,13.0,83,0.00,,---,0.00,VWS V13.01,2013-03-03 15:36:00,
2013-03-03 10:41:00,23.0,18.6,30.02,NNE,18,6.0,13.0,83,0.00,,---,0.00,VWS V13.01,2013-03-03 15:41:00,
2013-03-03 10:46:00,22.9,18.8,30.01,NNW,347,13.0,13.0,84,0.00,,---,0.00,VWS V13.01,2013-03-03 15:46:00,
2013-03-03 10:52:00,23.0,18.9,30.02,WNW,298,6.0,14.0,84,0.00,,---,0.00,VWS V13.01,2013-03-03 15:52:00,
2013-03-03 10:57:00,23.0,18.9,30.02,WNW,295,6.0,14.0,84,0.00,,---,0.00,VWS V13.01,2013-03-03 15:57:00,
2013-03-03 11:02:00,23.0,18.6,30.02,NW,316,9.0,20.0,83,0.00,,---,0.00,VWS V13.01,2013-03-03 16:02:00,
2013-03-03 11:07:00,23.1,18.7,30.02,NW,319,5.0,20.0,83,0.00,,---,0.00,VWS V13.01,2013-03-03 16:07:00,
2013-03-03 11:12:00,23.2,18.8,30.02,NNW,327,7.0,20.0,83,0.00,,---,0.00,VWS V13.01,2013-03-03 16:12:00,
2013-03-03 11:17:00,23.3,18.6,30.02,WNW,300,7.0,20.0,82,0.00,,---,0.00,VWS V13.01,2013-03-03 16:17:00,
2013-03-03 11:22:00,23.5,18.8,30.02,NNW,334,7.0,20.0,82,0.00,,---,0.00,VWS V13.01,2013-03-03 16:22:00,
2013-03-03 11:27:00,23.6,18.9,30.02,NNW,335,6.0,20.0,82,0.00,,---,0.00,VWS V13.01,2013-03-03 16:27:00,
2013-03-03 11:32:00,23.6,18.9,30.03,NW,325,13.0,13.0,82,0.00,,---,0.00,VWS V13.01,2013-03-03 16:32:00,
2013-03-03 11:37:00,23.6,18.9,30.03,NNW,341,7.0,14.0,82,0.00,,---,0.00,VWS V13.01,2013-03-03 16:37:00,
2013-03-03 11:42:00,23.6,18.6,30.03,NNW,337,8.0,15.0,81,0.00,,---,0.00,VWS V13.01,2013-03-03 16:42:00,
2013-03-03 11:47:00,23.6,18.4,30.03,NW,322,6.0,15.0,80,0.00,,---,0.00,VWS V13.01,2013-03-03 16:47:00,
2013-03-03 11:53:00,23.8,18.5,30.03,NNW,337,6.0,15.0,80,0.00,,---,0.00,VWS V13.01,2013-03-03 16:53:00,
2013-03-03 11:58:00,23.7,18.1,30.03,NW,325,13.0,20.0,79,0.00,,---,0.00,VWS V13.01,2013-03-03 16:58:00,
2013-03-03 12:03:00,23.7,18.5,30.03,WNW,299,10.0,18.0,80,0.00,,---,0.00,VWS V13.01,2013-03-03 17:03:00,
2013-03-03 12:08:00,23.7,18.5,30.03,NW,305,13.0,18.0,80,0.00,,---,0.00,VWS V13.01,2013-03-03 17:08:00,
2013-03-03 12:13:00,23.8,18.2,30.02,NNW,336,11.0,19.0,79,0.00,,---,0.00,VWS V13.01,2013-03-03 17:13:00,
2013-03-03 12:18:00,23.9,18.4,30.02,NW,306,9.0,19.0,79,0.00,,---,0.00,VWS V13.01,2013-03-03 17:18:00,
2013-03-03 12:23:00,23.9,18.6,30.02,NW,309,10.0,19.0,80,0.00,,---,0.00,VWS V13.01,2013-03-03 17:23:00,
2013-03-03 12:28:00,24.0,18.7,30.02,WNW,296,13.0,19.0,80,0.00,,---,0.00,VWS V13.01,2013-03-03 17:28:00,
2013-03-03 12:33:00,23.9,18.6,30.02,NW,306,10.0,22.0,80,0.00,,---,0.00,VWS V13.01,2013-03-03 17:33:00,
2013-03-03 12:38:00,23.7,18.5,30.02,NNW,333,12.0,22.0,80,0.00,,---,0.00,VWS V13.01,2013-03-03 17:38:00,
2013-03-03 12:43:00,23.7,18.5,30.02,NW,321,9.0,22.0,80,0.00,,---,0.00,VWS V13.01,2013-03-03 17:43:00,
2013-03-03 12:48:00,23.7,18.7,30.02,WNW,303,14.0,22.0,81,0.00,,---,0.00,VWS V13.01,2013-03-03 17:48:00,
2013-03-03 12:53:00,23.4,18.1,30.02,NW,304,12.0,22.0,80,0.00,,---,0.00,VWS V13.01,2013-03-03 17:53:00,
2013-03-03 12:59:00,23.3,18.3,30.02,NW,323,8.0,22.0,81,0.00,,---,0.00,VWS V13.01,2013-03-03 17:59:00,
2013-03-03 13:04:00,23.2,18.2,30.02,WNW,299,12.0,18.0,81,0.00,,---,0.00,VWS V13.01,2013-03-03 18:04:00,
2013-03-03 13:09:00,23.2,18.2,30.01,WNW,294,10.0,18.0,81,0.00,,---,0.00,VWS V13.01,2013-03-03 18:09:00,
2013-03-03 13:14:00,23.2,18.2,30.01,NW,313,4.0,18.0,81,0.00,,---,0.00,VWS V13.01,2013-03-03 18:14:00,
2013-03-03 13:19:00,23.3,18.6,30.01,NW,309,10.0,18.0,82,0.00,,---,0.00,VWS V13.01,2013-03-03 18:19:00,
2013-03-03 13:24:00,23.3,18.3,30.01,North,355,10.0,18.0,81,0.00,,---,0.00,VWS V13.01,2013-03-03 18:24:00,
2013-03-03 13:29:00,23.4,18.4,30.01,WNW,284,18.0,21.0,81,0.00,,---,0.00,VWS V13.01,2013-03-03 18:29:00,
2013-03-03 13:34:00,23.4,18.4,30.01,NW,313,10.0,21.0,81,0.00,,---,0.00,VWS V13.01,2013-03-03 18:34:00,
2013-03-03 13:39:00,23.6,18.6,30.01,WNW,303,8.0,21.0,81,0.00,,---,0.00,VWS V13.01,2013-03-03 18:39:00,
2013-03-03 13:44:00,23.8,18.5,30.01,NNW,330,11.0,21.0,80,0.00,,---,0.00,VWS V13.01,2013-03-03 18:44:00,
2013-03-03 13:49:00,23.9,18.6,30.01,NW,315,11.0,21.0,80,0.00,,---,0.00,VWS V13.01,2013-03-03 18:49:00,
2013-03-03 13:54:00,24.2,18.6,30.00,WNW,299,12.0,21.0,79,0.00,,---,0.00,VWS V13.01,2013-03-03 18:54:00,
2013-03-03 13:59:00,24.2,18.6,30.00,NW,317,7.0,21.0,79,0.00,,---,0.00,VWS V13.01,2013-03-03 18:59:00,
2013-03-03 14:04:00,24.3,19.0,30.00,WNW,297,9.0,14.0,80,0.00,,---,0.00,VWS V13.01,2013-03-03 19:04:00,
2013-03-03 14:10:00,24.4,19.1,30.00,WNW,295,11.0,14.0,80,0.00,,---,0.00,VWS V13.01,2013-03-03 19:10:00,
2013-03-03 14:15:00,24.3,19.0,30.00,NNW,340,4.0,15.0,80,0.00,,---,0.00,VWS V13.01,2013-03-03 19:15:00,
2013-03-03 14:20:00,24.2,18.9,30.01,NW,323,8.0,18.0,80,0.00,,---,0.00,VWS V13.01,2013-03-03 19:20:00,
2013-03-03 14:25:00,24.3,19.3,30.00,WNW,300,21.0,23.0,81,0.00,,---,0.00,VWS V13.01,2013-03-03 19:25:00,
2013-03-03 14:30:00,24.0,19.0,30.01,NW,312,9.0,23.0,81,0.00,,---,0.00,VWS V13.01,2013-03-03 19:30:00,
2013-03-03 14:35:00,24.0,19.0,30.01,WNW,297,11.0,18.0,81,0.00,,---,0.00,VWS V13.01,2013-03-03 19:35:00,
2013-03-03 14:40:00,24.1,19.1,30.01,NW,304,12.0,19.0,81,0.00,,---,0.00,VWS V13.01,2013-03-03 19:40:00,
2013-03-03 14:45:00,24.0,18.5,30.01,West,278,16.0,19.0,79,0.00,,---,0.00,VWS V13.01,2013-03-03 19:45:00,
2013-03-03 14:50:00,23.8,18.5,30.01,NW,311,15.0,23.0,80,0.00,,---,0.00,VWS V13.01,2013-03-03 19:50:00,
2013-03-03 14:55:00,23.9,18.6,30.01,NW,309,16.0,23.0,80,0.00,,---,0.00,VWS V13.01,2013-03-03 19:55:00,
2013-03-03 15:00:00,23.9,18.6,30.01,WNW,299,12.0,15.0,80,0.00,,---,0.00,VWS V13.01,2013-03-03 20:00:00,
2013-03-03 15:05:00,23.8,18.2,30.01,WNW,291,10.0,22.0,79,0.00,,---,0.00,VWS V13.01,2013-03-03 20:05:00,
2013-03-03 15:11:00,23.9,18.4,30.01,NW,306,8.0,22.0,79,0.00,,---,0.00,VWS V13.01,2013-03-03 20:11:00,
2013-03-03 15:16:00,23.9,18.4,30.01,NW,310,16.0,22.0,79,0.00,,---,0.00,VWS V13.01,2013-03-03 20:16:00,
2013-03-03 15:21:00,23.9,18.4,30.01,WNW,300,9.0,22.0,79,0.00,,---,0.00,VWS V13.01,2013-03-03 20:21:00,
2013-03-03 15:26:00,24.0,18.5,30.01,NW,304,16.0,22.0,79,0.00,,---,0.00,VWS V13.01,2013-03-03 20:26:00,
2013-03-03 15:31:00,23.9,18.4,30.01,NW,310,10.0,20.0,79,0.00,,---,0.00,VWS V13.01,2013-03-03 20:31:00,
2013-03-03 15:36:00,23.8,18.2,30.01,WNW,300,13.0,20.0,79,0.00,,---,0.00,VWS V13.01,2013-03-03 20:36:00,
2013-03-03 15:41:00,23.8,18.2,30.01,NNW,327,15.0,20.0,79,0.00,,---,0.00,VWS V13.01,2013-03-03 20:41:00,
2013-03-03 15:46:00,23.7,17.9,30.01,NW,316,16.0,21.0,78,0.00,,---,0.00,VWS V13.01,2013-03-03 20:46:00,
2013-03-03 15:51:00,23.5,18.0,30.01,WNW,298,15.0,25.0,79,0.00,,---,0.00,VWS V13.01,2013-03-03 20:51:00,
2013-03-03 15:56:00,23.4,17.9,30.01,WNW,294,9.0,25.0,79,0.00,,---,0.00,VWS V13.01,2013-03-03 20:56:00,
2013-03-03 16:02:00,23.5,18.2,30.01,WNW,302,7.0,15.0,80,0.00,,---,0.00,VWS V13.01,2013-03-03 21:02:00,
2013-03-03 16:07:00,23.5,18.5,30.01,WNW,292,8.0,16.0,81,0.00,,---,0.00,VWS V13.01,2013-03-03 21:07:00,
2013-03-03 16:12:00,23.5,18.5,30.01,WNW,300,13.0,20.0,81,0.00,,---,0.00,VWS V13.01,2013-03-03 21:12:00,
2013-03-03 16:17:00,23.5,18.5,30.01,NW,310,8.0,21.0,81,0.00,,---,0.00,VWS V13.01,2013-03-03 21:17:00,
2013-03-03 16:22:00,23.4,18.7,30.01,NW,322,10.0,21.0,82,0.00,,---,0.00,VWS V13.01,2013-03-03 21:22:00,
2013-03-03 16:27:00,23.3,18.9,30.01,WNW,298,11.0,21.0,83,0.00,,---,0.00,VWS V13.01,2013-03-03 21:27:00,
2013-03-03 16:32:00,23.3,19.2,30.02,NNW,334,13.0,15.0,84,0.00,,---,0.00,VWS V13.01,2013-03-03 21:32:00,
2013-03-03 16:37:00,23.2,19.1,30.02,NW,312,6.0,22.0,84,0.00,,---,0.00,VWS V13.01,2013-03-03 21:37:00,
2013-03-03 16:42:00,23.2,18.8,30.02,WNW,295,8.0,22.0,83,0.00,,---,0.00,VWS V13.01,2013-03-03 21:42:00,
2013-03-03 16:47:00,23.3,18.9,30.02,NW,307,9.0,22.0,83,0.00,,---,0.00,VWS V13.01,2013-03-03 21:47:00,
2013-03-03 16:52:00,23.3,18.6,30.02,NW,324,8.0,22.0,82,0.00,,---,0.00,VWS V13.01,2013-03-03 21:52:00,
2013-03-03 16:58:00,23.3,18.6,30.02,WNW,302,16.0,22.0,82,0.00,,---,0.00,VWS V13.01,2013-03-03 21:58:00,
2013-03-03 17:03:00,23.2,18.2,30.02,WNW,296,15.0,21.0,81,0.00,,---,0.00,VWS V13.01,2013-03-03 22:03:00,
2013-03-03 17:08:00,23.0,17.8,30.02,West,276,16.0,22.0,80,0.00,,---,0.00,VWS V13.01,2013-03-03 22:08:00,
2013-03-03 17:13:00,22.9,18.0,30.03,WNW,300,19.0,26.0,81,0.00,,---,0.00,VWS V13.01,2013-03-03 22:13:00,
2013-03-03 17:18:00,22.9,18.0,30.03,WNW,298,15.0,26.0,81,0.00,,---,0.00,VWS V13.01,2013-03-03 22:18:00,
2013-03-03 17:23:00,22.8,17.9,30.03,NW,306,12.0,26.0,81,0.00,,---,0.00,VWS V13.01,2013-03-03 22:23:00,
2013-03-03 17:28:00,22.7,18.0,30.03,NW,310,18.0,26.0,82,0.00,,---,0.00,VWS V13.01,2013-03-03 22:28:00,
2013-03-03 17:33:00,22.6,17.7,30.03,WNW,300,8.0,19.0,81,0.00,,---,0.00,VWS V13.01,2013-03-03 22:33:00,
2013-03-03 17:38:00,22.6,17.7,30.03,WNW,300,12.0,19.0,81,0.00,,---,0.00,VWS V13.01,2013-03-03 22:38:00,
2013-03-03 17:43:00,22.5,17.6,30.04,NW,311,13.0,19.0,81,0.00,,---,0.00,VWS V13.01,2013-03-03 22:43:00,
2013-03-03 17:49:00,22.5,17.9,30.04,WNW,294,14.0,19.0,82,0.00,,---,0.00,VWS V13.01,2013-03-03 22:49:00,
2013-03-03 17:54:00,22.4,17.8,30.04,WNW,288,12.0,19.0,82,0.00,,---,0.00,VWS V13.01,2013-03-03 22:54:00,
2013-03-03 17:59:00,22.2,17.8,30.04,West,279,13.0,19.0,83,0.00,,---,0.00,VWS V13.01,2013-03-03 22:59:00,
2013-03-03 18:04:00,22.2,17.3,30.04,WNW,296,12.0,23.0,81,0.00,,---,0.00,VWS V13.01,2013-03-03 23:04:00,
2013-03-03 18:09:00,22.2,17.3,30.04,WNW,291,15.0,23.0,81,0.00,,---,0.00,VWS V13.01,2013-03-03 23:09:00,
2013-03-03 18:14:00,22.2,17.3,30.04,WNW,291,15.0,23.0,81,0.00,,---,0.00,VWS V13.01,2013-03-03 23:14:00,
2013-03-03 18:19:00,22.2,17.5,30.04,WNW,298,11.0,23.0,82,0.00,,---,0.00,VWS V13.01,2013-03-03 23:19:00,
2013-03-03 18:24:00,22.1,17.5,30.05,WNW,293,14.0,23.0,82,0.00,,---,0.00,VWS V13.01,2013-03-03 23:24:00,
2013-03-03 18:29:00,22.1,17.2,30.05,WNW,294,10.0,23.0,81,0.00,,---,0.00,VWS V13.01,2013-03-03 23:29:00,
2013-03-03 18:34:00,22.1,17.2,30.05,WNW,298,12.0,16.0,81,0.00,,---,0.00,VWS V13.01,2013-03-03 23:34:00,
2013-03-03 18:39:00,22.1,17.2,30.06,WNW,296,10.0,16.0,81,0.00,,---,0.00,VWS V13.01,2013-03-03 23:39:00,
2013-03-03 18:44:00,22.0,17.4,30.06,WNW,295,8.0,16.0,82,0.00,,---,0.00,VWS V13.01,2013-03-03 23:44:00,
2013-03-03 18:49:00,21.9,17.3,30.06,WNW,285,10.0,16.0,82,0.00,,---,0.00,VWS V13.01,2013-03-03 23:49:00,
2013-03-03 18:54:00,21.8,17.4,30.06,WNW,289,11.0,19.0,83,0.00,,---,0.00,VWS V13.01,2013-03-03 23:54:00,
2013-03-03 18:59:00,21.7,17.3,30.06,WNW,300,9.0,19.0,83,0.00,,---,0.00,VWS V13.01,2013-03-03 23:59:00,
2013-03-03 19:05:00,21.7,17.3,30.06,WNW,299,8.0,19.0,83,0.00,,---,0.00,VWS V13.01,2013-03-04 00:05:00,
2013-03-03 19:10:00,21.7,17.6,30.07,WNW,287,7.0,19.0,84,0.00,,---,0.00,VWS V13.01,2013-03-04 00:10:00,
2013-03-03 19:15:00,21.7,17.6,30.06,WNW,284,9.0,19.0,84,0.00,,---,0.00,VWS V13.01,2013-03-04 00:15:00,
2013-03-03 19:20:00,21.6,17.8,30.06,WNW,290,10.0,20.0,85,0.00,,---,0.00,VWS V13.01,2013-03-04 00:20:00,
2013-03-03 19:25:00,21.6,19.6,30.06,WNW,293,6.0,20.0,92,0.00,,---,0.00,VWS V13.01,2013-03-04 00:25:00,
2013-03-03 19:30:00,21.5,17.7,30.06,West,280,7.0,20.0,85,0.00,,---,0.00,VWS V13.01,2013-03-04 00:30:00,
2013-03-03 19:35:00,21.4,17.9,30.07,WNW,292,13.0,13.0,86,0.00,,---,0.00,VWS V13.01,2013-03-04 00:35:00,
2013-03-03 19:40:00,21.5,18.0,30.07,West,271,8.0,13.0,86,0.00,,---,0.00,VWS V13.01,2013-03-04 00:40:00,
2013-03-03 19:45:00,21.4,17.6,30.07,WNW,286,7.0,13.0,85,0.00,,---,0.00,VWS V13.01,2013-03-04 00:45:00,
2013-03-03 19:50:00,21.4,17.9,30.07,WNW,291,10.0,15.0,86,0.00,,---,0.00,VWS V13.01,2013-03-04 00:50:00,
2013-03-03 19:55:00,21.3,17.5,30.07,West,278,6.0,16.0,85,0.00,,---,0.00,VWS V13.01,2013-03-04 00:55:00,
2013-03-03 20:00:00,21.4,17.0,30.07,WNW,294,10.0,13.0,83,0.00,,---,0.00,VWS V13.01,2013-03-04 01:00:00,
2013-03-03 20:05:00,21.3,17.0,30.07,WNW,290,8.0,13.0,83,0.00,,---,0.00,VWS V13.01,2013-03-04 01:05:00,
2013-03-03 20:11:00,21.2,16.9,30.07,West,275,12.0,16.0,83,0.00,,---,0.00,VWS V13.01,2013-03-04 01:11:00,
2013-03-03 20:16:00,21.2,17.1,30.07,WNW,286,10.0,16.0,84,0.00,,---,0.00,VWS V13.01,2013-03-04 01:16:00,
2013-03-03 20:21:00,21.2,17.4,30.07,West,281,9.0,16.0,85,0.00,,---,0.00,VWS V13.01,2013-03-04 01:21:00,
2013-03-03 20:26:00,21.2,17.4,30.07,NW,309,8.0,16.0,85,0.00,,---,0.00,VWS V13.01,2013-03-04 01:26:00,
2013-03-03 20:31:00,21.2,17.4,30.07,NW,315,10.0,13.0,85,0.00,,---,0.00,VWS V13.01,2013-03-04 01:31:00,
2013-03-03 20:36:00,21.2,17.4,30.08,West,281,9.0,15.0,85,0.00,,---,0.00,VWS V13.01,2013-03-04 01:36:00,
2013-03-03 20:41:00,21.1,17.6,30.08,West,280,7.0,15.0,86,0.00,,---,0.00,VWS V13.01,2013-03-04 01:41:00,
2013-03-03 20:46:00,21.1,17.3,30.08,West,277,12.0,18.0,85,0.00,,---,0.00,VWS V13.01,2013-03-04 01:46:00,
2013-03-03 20:51:00,21.1,17.3,30.08,WNW,292,12.0,18.0,85,0.00,,---,0.00,VWS V13.01,2013-03-04 01:51:00,
2013-03-03 20:56:00,21.1,17.3,30.08,WNW,294,7.0,18.0,85,0.00,,---,0.00,VWS V13.01,2013-03-04 01:56:00,
2013-03-03 21:01:00,21.1,17.3,30.08,WNW,290,9.0,12.0,85,0.00,,---,0.00,VWS V13.01,2013-03-04 02:01:00,
2013-03-03 21:06:00,21.0,17.2,30.08,WNW,294,8.0,14.0,85,0.00,,---,0.00,VWS V13.01,2013-03-04 02:06:00,
2013-03-03 21:12:00,21.0,17.5,30.08,WNW,286,13.0,15.0,86,0.00,,---,0.00,VWS V13.01,2013-03-04 02:12:00,
2013-03-03 21:17:00,20.9,17.4,30.08,West,275,13.0,15.0,86,0.00,,---,0.00,VWS V13.01,2013-03-04 02:17:00,
2013-03-03 21:22:00,20.9,17.1,30.08,WNW,302,7.0,15.0,85,0.00,,---,0.00,VWS V13.01,2013-03-04 02:22:00,
2013-03-03 21:27:00,20.8,17.3,30.07,WNW,283,12.0,15.0,86,0.00,,---,0.00,VWS V13.01,2013-03-04 02:27:00,
2013-03-03 21:32:00,20.8,17.3,30.07,WNW,288,9.0,14.0,86,0.00,,---,0.00,VWS V13.01,2013-03-04 02:32:00,
2013-03-03 21:37:00,20.7,17.2,30.08,WNW,282,9.0,14.0,86,0.00,,---,0.00,VWS V13.01,2013-03-04 02:37:00,
2013-03-03 21:42:00,20.6,17.4,30.07,WNW,286,9.0,14.0,87,0.00,,---,0.00,VWS V13.01,2013-03-04 02:42:00,
2013-03-03 21:47:00,20.6,17.4,30.08,WNW,284,8.0,14.0,87,0.00,,---,0.00,VWS V13.01,2013-03-04 02:47:00,
2013-03-03 21:52:00,20.5,17.2,30.08,WNW,286,9.0,14.0,87,0.00,,---,0.00,VWS V13.01,2013-03-04 02:52:00,
2013-03-03 21:57:00,20.5,17.2,30.08,WNW,288,11.0,14.0,87,0.00,,---,0.00,VWS V13.01,2013-03-04 02:57:00,
2013-03-03 22:02:00,20.5,17.2,30.08,West,281,9.0,12.0,87,0.00,,---,0.00,VWS V13.01,2013-03-04 03:02:00,
2013-03-03 22:07:00,20.6,17.4,30.08,West,277,9.0,12.0,87,0.00,,---,0.00,VWS V13.01,2013-03-04 03:07:00,
2013-03-03 22:12:00,20.5,17.5,30.07,West,278,9.0,13.0,88,0.00,,---,0.00,VWS V13.01,2013-03-04 03:12:00,
2013-03-03 22:18:00,20.5,17.5,30.07,WNW,283,9.0,13.0,88,0.00,,---,0.00,VWS V13.01,2013-03-04 03:18:00,
2013-03-03 22:23:00,20.5,17.5,30.07,WNW,285,6.0,13.0,88,0.00,,---,0.00,VWS V13.01,2013-03-04 03:23:00,
2013-03-03 22:28:00,20.5,17.5,30.07,WNW,287,7.0,13.0,88,0.00,,---,0.00,VWS V13.01,2013-03-04 03:28:00,
2013-03-03 22:33:00,20.4,17.4,30.07,WNW,284,7.0,9.0,88,0.00,,---,0.00,VWS V13.01,2013-03-04 03:33:00,
2013-03-03 22:38:00,20.4,17.7,30.07,WNW,283,8.0,9.0,89,0.00,,---,0.00,VWS V13.01,2013-03-04 03:38:00,
2013-03-03 22:43:00,20.4,17.7,30.07,WNW,283,5.0,9.0,89,0.00,,---,0.00,VWS V13.01,2013-03-04 03:43:00,
2013-03-03 22:48:00,20.4,17.7,30.07,WNW,283,6.0,9.0,89,0.00,,---,0.00,VWS V13.01,2013-03-04 03:48:00,
2013-03-03 22:53:00,20.4,17.7,30.07,WNW,284,5.0,9.0,89,0.00,,---,0.00,VWS V13.01,2013-03-04 03:53:00,
2013-03-03 22:58:00,20.4,17.7,30.07,WNW,283,6.0,9.0,89,0.00,,---,0.00,VWS V13.01,2013-03-04 03:58:00,
2013-03-03 23:03:00,20.4,17.7,30.07,WNW,284,5.0,6.0,89,0.00,,---,0.00,VWS V13.01,2013-03-04 04:03:00,
2013-03-03 23:09:00,20.4,17.7,30.07,WNW,283,5.0,6.0,89,0.00,,---,0.00,VWS V13.01,2013-03-04 04:09:00,
2013-03-03 23:14:00,20.4,17.7,30.07,WNW,284,6.0,7.0,89,0.00,,---,0.00,VWS V13.01,2013-03-04 04:14:00,
2013-03-03 23:19:00,20.4,17.7,30.07,WNW,284,3.0,7.0,89,0.00,,---,0.00,VWS V13.01,2013-03-04 04:19:00,
2013-03-03 23:24:00,20.5,17.8,30.07,NW,304,4.0,11.0,89,0.00,,---,0.00,VWS V13.01,2013-03-04 04:24:00,
2013-03-03 23:29:00,20.6,17.6,30.07,NW,305,4.0,11.0,88,0.00,,---,0.00,VWS V13.01,2013-03-04 04:29:00,
2013-03-03 23:34:00,20.6,17.4,30.07,NW,326,11.0,11.0,87,0.00,,---,0.00,VWS V13.01,2013-03-04 04:34:00,
2013-03-03 23:39:00,20.6,17.1,30.08,NW,325,11.0,20.0,86,0.00,,---,0.00,VWS V13.01,2013-03-04 04:39:00,
2013-03-03 23:44:00,20.6,16.8,30.08,NW,321,5.0,20.0,85,0.00,,---,0.00,VWS V13.01,2013-03-04 04:44:00,
2013-03-03 23:50:00,20.5,16.7,30.08,NNW,345,12.0,20.0,85,0.00,,---,0.00,VWS V13.01,2013-03-04 04:50:00,
2013-03-03 23:55:00,20.4,16.6,30.08,NW,315,8.0,20.0,85,0.00,,---,0.00,VWS V13.01,2013-03-04 04:55:00,